#timestamp,LO_Frequency,Hit,StdDev 
1509663615.5,286047001.4,N
1509663635.3,286047001.5,N
1509663655.2,286047003.5,N
1509663675.0,286047004.0,N
1509663675.9,286047004.0,N
1509663695.7,286047003.1,N
1509663715.6,286047004.6,N
1509663735.4,286047004.8,N
1509663755.3,286047006.0,N
1509663775.1,286047000.0,N
1509663776.0,286047000.0,N
1509663795.8,286046996.7,N
1509663815.7,286046994.7,N
1509663835.5,286046993.1,N
1509663855.3,286046990.3,N
1509663875.2,286046991.3,N
1509663895.9,286046992.7,N
1509663915.7,286046993.0,N
1509663935.6,286046992.4,N
1509663955.4,286046994.4,N
1509663975.2,286046994.7,N
1509663995.1,286046990.6,N
1509663996.0,286046990.6,N
1509664015.8,286046990.0,N
1509664035.6,286046991.0,N
1509664055.5,286046989.1,N
1509664075.3,286046989.9,N
1509664095.1,286046987.0,N
1509664115.9,286046987.6,N
1509664135.7,286046986.8,N
1509664155.5,286046989.6,N
1509664175.4,286046991.1,N
1509664195.2,286046991.2,N
1509664215.0,286046990.3,N
1509664215.9,286046990.3,N
1509664235.8,286046991.6,N
1509664255.6,286046991.6,N
1509664275.4,286046990.0,N
1509664295.3,286046989.4,N
1509664315.1,286046993.2,N
1509664335.8,286046990.4,Y
1509664355.7,286046998.6,P
1509664375.5,286046996.9,N
1509664395.4,286047000.4,N
1509664415.2,286047000.1,N
1509664435.0,286047000.2,N
1509664435.9,286047000.2,N
1509664455.8,286047002.8,N
1509664475.6,286046997.9,N
1509664495.4,286046997.9,N
1509664515.3,286046997.9,N
1509664535.1,286046999.3,N
1509664536.0,286046999.3,N
1509664555.8,286047002.8,N
1509664575.7,286047000.9,N
1509664595.5,286047000.5,N
1509664615.3,286047003.3,N
1509664635.2,286047006.0,N
1509664655.9,286047006.9,N
1509664675.7,286047007.2,N
1509664695.6,286047004.9,N
1509664715.4,286047005.0,N
1509664735.2,286047003.5,N
1509664755.1,286047001.4,N
1509664756.0,286047001.4,N
1509664775.8,286047006.0,N
1509664795.6,286047005.3,N
1509664815.5,286047007.5,N
1509664835.3,286047004.1,N
1509664855.1,286047002.9,N
1509664875.9,286047005.9,N
1509664895.7,286047007.2,N
1509664915.5,286047005.6,N
1509664935.4,286047001.3,N
1509664955.2,286047007.6,N
1509664975.0,286047008.7,N
1509664975.9,286047008.7,N
1509664995.8,286047008.5,N
1509665015.6,286047006.4,N
1509665035.4,286047007.0,N
1509665055.3,286047007.8,N
1509665075.1,286047010.7,Y
1509665095.9,286047004.3,P
1509665115.7,286046999.7,N
1509665135.5,286047000.1,N
1509665155.4,286047001.0,N
1509665175.2,286047000.5,N
1509665195.0,286046995.1,N
1509665195.9,286046995.1,N
1509665215.8,286046993.3,N
1509665235.6,286046995.8,N
1509665255.4,286046995.5,N
1509665275.3,286046999.5,N
1509665295.1,286046998.4,N
1509665296.0,286046998.4,N
1509665315.8,286046998.3,N
1509665335.7,286046999.7,N
1509665355.5,286047002.4,N
1509665375.3,286046999.9,N
1509665395.2,286047000.2,N
1509665415.0,286047000.6,N
1509665415.9,286047000.6,N
1509665435.7,286046999.0,N
1509665455.6,286047000.3,N
1509665475.4,286047000.7,N
1509665495.2,286047004.4,N
1509665515.1,286047003.8,N
1509665516.0,286047003.8,N
1509665535.8,286047002.6,N
1509665555.7,286047000.9,N
1509665575.5,286047001.1,N
1509665595.3,286047004.2,N
1509665615.2,286047005.4,N
1509665635.9,286047003.5,N
1509665655.7,286046999.7,N
1509665675.6,286046998.6,N
1509665695.4,286046998.8,N
1509665715.2,286046998.1,N
1509665735.1,286046997.9,N
1509665736.0,286046997.9,N
1509665755.8,286046996.2,N
1509665775.6,286046995.2,N
1509665795.5,286046994.0,N
1509665815.3,286046993.7,N
1509665835.1,286046996.1,N
1509665855.9,286046996.6,N
1509665875.7,286046997.6,N
1509665895.5,286046999.1,N
1509665915.4,286046995.6,N
1509665935.2,286046993.8,N
1509665955.0,286046996.0,N
1509665955.9,286046996.0,N
1509665975.8,286046997.4,N
1509665995.6,286046996.7,N
1509666015.4,286046995.5,N
1509666035.3,286046997.8,N
1509666055.1,286046996.8,N
1509666056.0,286046996.8,N
1509666075.8,286046998.4,N
1509666095.7,286047000.4,N
1509666115.5,286047000.3,N
1509666135.3,286046998.7,N
1509666155.2,286046997.5,N
1509666175.9,286047001.8,N
1509666195.7,286047004.4,N
1509666215.6,286046999.8,N
1509666235.4,286047002.2,N
1509666255.2,286047003.6,N
1509666275.1,286047002.2,N
1509666276.0,286047002.2,N
1509666295.8,286047000.2,N
1509666315.6,286046997.7,N
1509666335.5,286046995.5,N
1509666355.3,286046997.9,N
1509666375.1,286046995.2,N
1509666395.9,286046994.5,N
1509666415.7,286046992.1,N
1509666435.5,286046992.4,N
1509666455.4,286046992.1,N
1509666475.2,286046993.5,N
1509666495.0,286046995.1,N
1509666495.9,286046995.1,N
1509666515.8,286046995.7,N
1509666535.6,286046996.4,N
1509666555.4,286046999.0,N
1509666575.3,286046998.4,N
1509666595.1,286046996.7,N
1509666615.8,286046995.0,N
1509666635.7,286046995.0,N
1509666655.5,286046996.1,N
1509666675.3,286046994.7,N
1509666695.2,286046992.4,N
1509666715.0,286046989.8,N
1509666715.9,286046989.8,N
1509666735.7,286046989.6,N
1509666755.6,286046984.2,Y
1509666775.4,286046984.8,P
1509666795.3,286046980.4,P
1509666815.1,286046973.3,P
1509666816.0,286046973.3,Y
1509666835.8,286046989.9,P
1509666855.7,286046985.5,P
1509666875.5,286046984.6,P
1509666895.3,286046980.5,Y
1509666915.2,286046997.4,P
1509666935.0,286046999.0,N
1509666935.9,286046999.0,N
1509666955.8,286047004.2,N
1509666975.6,286047006.0,N
1509666995.4,286047005.3,N
1509667015.3,286047005.4,N
1509667035.1,286047008.3,N
1509667036.0,286047008.3,N
1509667055.8,286047015.4,N
1509667075.7,286047018.8,N
1509667095.5,286047019.1,N
1509667115.3,286047022.0,N
1509667135.2,286047021.8,N
1509667155.9,286047021.2,N
1509667175.7,286047020.5,N
1509667195.6,286047022.9,N
